Home > Weather > Mysen > Past weeks

Flag for Norway Past Weather in Mysen, Norway — Yesterday and Last 2 Weeks

Now
61 °F

Low clouds.


Feels Like: 61 °F
Forecast: 54 / 61 °F
Wind: 8 mph from South

Location: Rygge

Current Time: Jun 26, 2016 at 5:34:59 PM

Latest Report: Jun 26, 2016 at 4:00 PM


Visibility: 3 mi

Pressure: 29.78 "Hg

Humidity: 95%

Dew Point: 59 °F

Location of MysenLocation

Past Weather in Mysen — Graph

°F

Mysen Temperature Yesterday

Maximum temperature yesterday: 71 °F (at 1:00 PM)
Minimum temperature yesterday: 59 °F (at 2:00 AM)
Average temperature yesterday: 64 °F

High & Low Weather Summary for the Past Weeks

 TemperatureHumidityPressure
High76 °F (Jun 16, 2:00 PM)98% (Jun 15, 11:00 PM)30.19 "Hg (Jun 15, 11:00 PM)
Low43 °F (Jun 13, 6:00 AM)30% (Jun 13, 1:00 PM)29.56 "Hg (Jun 17, 2:00 AM)
Average61 °F75%29.84 "Hg
* Reported Jun 11 4:00 PM — Jun 26 4:00 PM, Mysen, Weather by CustomWeather, © 2016

Note: Actual official high and low records may vary slightly from our data, if they occured in-between our weather recording intervals... More about our weather records

Advertising

Mysen Weather History for the Previous 24 Hours

Scroll right to see more
 ConditionsComfort  
Time TempWeatherWind HumidityBarometerVisibility
4:00 PM
Sun, Jun 26
61 °FLow clouds.8 mph95%29.78 "Hg2 mi
3:00 PM61 °FLots of rain. Low clouds.8 mph96%29.76 "Hg4 mi
2:00 PM69 °FOvercast.5 mph86%29.73 "Hg19 mi
1:00 PM67 °FOvercast.5 mph84%29.75 "Hg28 mi
12:00 PM68 °FOvercast.5 mph83%29.75 "Hg28 mi
11:00 AM66 °FPartly sunny.5 mph91%29.76 "Hg25 mi
10:00 AM64 °FLots of rain. Overcast.2 mph93%29.78 "Hg6 mi
9:00 AM65 °FPartly sunny.2 mph85%29.77 "Hg28 mi
8:00 AM64 °FRain showers. Overcast.6 mph81%29.77 "Hg28 mi
7:00 AM64 °FPartly sunny.6 mph81%29.80 "Hg31 mi
6:00 AM63 °FOvercast.5 mph86%29.81 "Hg28 mi
5:00 AM63 °FRain. Overcast.7 mph85%29.82 "Hg7 mi
4:00 AM62 °FOvercast.5 mph81%29.83 "Hg31 mi
3:00 AM61 °FPassing clouds.2 mph83%29.86 "Hg31 mi
2:00 AM60 °FPassing clouds.3 mph84%29.88 "Hg31 mi
1:00 AM61 °FPassing clouds.2 mph83%29.90 "Hg31 mi
12:00 AM59 °FClear.1 mph92%29.91 "Hg31 mi
11:00 PM
Sat, Jun 25
62 °FOvercast.2 mph83%29.93 "Hg31 mi
10:00 PM64 °FPartly sunny.1 mph77%29.94 "Hg31 mi
9:00 PM66 °FScattered clouds.2 mph69%29.95 "Hg31 mi
8:00 PM67 °FOvercast.1 mph62%29.94 "Hg31 mi
7:00 PM67 °FPartly sunny.2 mph59%29.94 "Hg25 mi
6:00 PM68 °FSunny.6 mph60%29.97 "Hg28 mi
5:00 PM68 °FSunny.7 mph68%29.98 "Hg22 mi
Weather by CustomWeather, © 2016

See weather overviewHow to use our weather pages